Weather in Destin

United States     30°23′49″N   86°29′02″W
temp.,
°C
wind,
m/s
gust,
m/s
humid.,
%
clouds,
%
prec.,
mm/h
press.,
hPa
HPBL,
m
18 may, tue
tue1823:00+21sse377688 0.0 1020231
02:00+21ese4107597 0.0 1019531
05:00+20ese4107291 0.0 1019411
08:00+21ese61184100 0.1 1020846
11:00+23se6971100 0.0 1021885
14:00+26sse895730 0.0 10201136
17:00+26sse81156100 0.0 10181015
20:00+23sse4116878 0.0 1019521
19 may, wed
wed1923:00+22ese3476100 0.0 102099
02:00+23ese6136966 0.0 1020867
05:00+21ese6137199 0.0 1019788
08:00+20e5107745 0.0 1022739
11:00+24ese6961100 0.0 10221094
14:00+27sse785143 0.0 10211499
17:00+26sse7105214 0.0 1020902
20:00+24sse4126815 0.0 1019488
20 may, thu
thu2023:00+23e39709 0.0 1020345
02:00+23se712681 0.1 10211025
05:00+21ese511754 0.0 1021754
08:00+20e5108010 0.0 1023681
11:00+25ese685418 0.0 10231304
14:00+27sse685115 0.0 10231596
17:00+26sse67540 0.0 1021943
20:00+24sse22660 0.0 102164
21 may, fri
fri2123:00+21ne226977 0.0 102230
02:00+21e411666 0.0 1023520
05:00+20e511675 0.0 1024610
08:00+19e497676 0.0 1026500
11:00+25ese685471 0.0 10271262
14:00+27sse684992 0.0 10261579
17:00+26s445328 0.0 1025821
20:00+23ssw22666 0.0 102481
22 may, sat
sat2223:00+21nw22702 0.0 102527
02:00+20ne23765 0.0 102560
05:00+20e36786 0.0 1025143
08:00+20e36757 0.0 1026175
11:00+27e354526 0.0 10261085
14:00+30ese36385 0.0 10242036
17:00+30se35405 0.0 10222089
20:00+23ssw45730 0.0 1022236